Погода в Солгинском

Россия / Архангельская область     61°03′04″N   41°20′35″E
темп.,
°C
ветер,
м/с
пор.,
м/с
влажн.,
%
обл.,
%
осадки,
мм/ч
давл.,
гПа
погр.,
м
12 апреля, пн
пн1200:000юз3128612 0.0 1033241
03:00−2юз25915 0.0 103580
06:00−4ююз24896 0.0 103660
09:00+5ююв366787 0.0 1036333
12:00+5ююв3988100 0.2 1035455
15:00+8ю4987100 0.3 1034659
18:00+8ю3119320 0.0 1032569
21:00+7ю41394100 0.0 1032362
13 апреля, вт
вт1300:00+6ю41494100 0.0 1031422
03:00+5ю41391100 0.0 1029476
06:00+5ю41196100 0.1 1028448
09:00+6ю41196100 0.1 1026480
12:00+9ююз41191100 0.0 1025523
15:00+11ююз31185100 0.0 1023697
18:00+12ююз2687100 0.0 1022156
21:00+9ююз31093100 0.0 1022226
14 апреля, ср
ср1400:00+8ююз2796100 0.0 1021159
03:00+8ю2695100 0.2 1021163
06:00+7ю389578 0.1 1021184
09:00+11ююз4117570 0.1 1019376
12:00+16ююз51159100 0.0 1018945
15:00+16ююз5116298 0.0 10171318
18:00+15ююз51264100 0.3 1016704
21:00+11ююз4137597 0.4 1016428
15 апреля, чт
чт1500:00+9сз3697100 0.9 1017316
03:00+5с3692100 1.9 1020476
06:00+4ссв3692100 0.0 1022569
09:00+4ссв3594100 0.1 1023551
12:00+5ссв2475100 0.1 1024873
15:00+6ссв3465100 0.1 10251098
18:00+5ссв3570100 0.1 1025668
21:00+2с268698 0.1 1026139
16 апреля, пт
пт1600:000ссв24860 0.0 102772
03:00−1ссв12850 0.0 102815
06:000с258117 0.0 1029127
09:00+5ссв24555 0.0 1030821
12:00+7с34455 0.0 10301422
15:00+8с454435 0.0 10311792
18:00+7с36535 0.0 1032758
21:00+3с39775 0.0 1034277